Location: Czarlowitz
(49.6170°N, 12.9976°E)
Time: 13:16:31
(UTC+00:00)

Daily predictions for brighter satellites

Satellite Brightness Start Highest point End
(mag) Time Altitude Azimuth Time Altitude Azimuth Time Altitude Azimuth
Cosmos 909 Rocket 4.2 18:35:18 10° SSW 18:41:24 53° ESE 18:47:40 10° NE
Cosmos 2237 Rocket 2.5 18:36:52 10° NNW 18:42:26 56° NE 18:47:58 10° SE
Helios 1A Rocket 3.8 18:42:21 10° S 18:46:22 53° W 18:50:25 10° NNW
DMSP B5D2-2 4.1 18:42:10 10° NNE 18:47:27 87° ESE 18:52:43 10° SSW
Cosmos 1818 3.6 18:42:30 10° SSW 18:47:55 71° SE 18:53:23 10° NE
NOSS 3-4 (A) 4.4 18:42:28 10° WSW 18:48:15 52° NW 18:54:35 10° NE
NOSS 3-4 (C) 4.4 18:42:35 10° WSW 18:48:22 53° NW 18:54:42 10° NE
Cosmos 482 Debris 3.8 18:46:24 10° W 18:49:04 48° N 18:51:02 10° ENE
Cosmos 192 4.4 18:45:03 10° NNW 18:50:02 67° ENE 18:54:56 10° SSE
Cosmos 1892 4.4 18:48:31 10° NNW 18:52:01 36° W 18:55:31 10° SSW
Cosmos 1825 2.4 18:49:54 10° NNW 18:53:42 76° W 18:57:27 10° S
Exosat Rocket 4.1 18:50:58 10° NNW 18:57:25 71° WSW 19:02:29 10° SSE
Cosmos 2227 Rocket 3.1 18:54:45 10° SSE 18:59:27 28° ESE 19:04:10 10° NE
Cosmos 1655 Rocket 4.5 18:53:30 10° N 18:59:29 43° ENE 19:05:21 10° SE
CZ-4C R/B 4.0 18:54:42 10° W 18:59:37 34° NNW 19:05:30 10° NE
Abrixas rocket 1.1 18:58:16 10° WSW 18:59:45 34° SSE 19:00:44 16° ESE
Cosmos 1092 Rocket 4.5 18:54:22 10° NNW 19:00:34 66° W 19:06:40 10° S
BREEZE-M DEB (TANK) 3.8 18:58:11 10° WSW 19:01:19 74° SSE 19:09:39 10° ENE
ATLAS 2AS CENTAUR R/B 3.5 18:53:52 10° SW 19:01:45 68° NW 19:09:27 10° NE
Cosmos 2058 3.3 18:59:08 10° NNW 19:03:19 67° W 19:07:25 10° S
Cosmos 2297 Rocket 2.7 19:00:47 10° S 19:05:58 39° ESE 19:11:10 10° NE
Cosmos 1633 3.2 19:02:38 10° N 19:06:02 38° ENE 19:09:14 11° SE
FALCON 9 DEB 4.2 19:04:44 10° S 19:07:05 20° SE 19:09:23 10° E
Lacrosse 5 rocket 3.1 19:04:36 10° WNW 19:08:18 30° N 19:12:10 10° ENE
FALCON 9 DEB 3.9 19:09:08 10° SSW 19:11:42 25° SE 19:14:18 10° E
Resurs 01 Rocket 1.9 19:08:46 10° SE 19:13:05 52° ENE 19:17:25 10° N
Genesis I 3.3 19:10:18 10° NW 19:14:18 72° NE 19:17:40 14° SE
Resurs 1-3 3.6 19:10:26 10° SSE 19:14:49 85° ENE 19:19:14 10° NNW
Cosmos 2219 3.6 19:09:52 10° S 19:15:05 41° ESE 19:20:19 10° NE
Cosmos 2333 Rocket 4.2 19:11:09 10° NW 19:15:56 28° WSW 19:20:40 10° SSW
BREEZE-M DEB (TANK) 3.7 19:12:30 10° WSW 19:16:30 84° SSE 19:31:11 10° E
Meteor 1-4 Rocket 4.4 19:16:24 13° E 19:17:01 13° E 19:18:42 10° ENE
SJ-6B 3.8 19:15:16 10° S 19:18:52 45° W 19:22:32 10° NNW
CZ-2C R/B 4.5 19:15:02 10° N 19:19:42 34° WNW 19:24:24 10° SW
ERS-2 4.0 19:18:47 10° N 19:22:08 34° WNW 19:25:26 10° SW
Cosmos 2084 Rocket 3.9 19:19:39 10° S 19:23:13 33° ESE 19:26:52 10° ENE
Cosmos 389 Rocket 2.4 19:20:05 10° S 19:23:37 86° E 19:27:13 10° NNE
FALCON 9 DEB 3.5 19:20:57 10° SSW 19:23:43 33° SE 19:26:04 13° E
Cosmos 1190 Rocket 4.3 19:18:57 10° S 19:23:51 42° ESE 19:28:46 10° NE
Ariane Rocket 3.3 19:20:13 10° S 19:25:15 69° WSW 19:30:19 10° NNW
Cosmos 614 Rocket 4.1 19:22:15 10° SSW 19:27:24 81° WNW 19:32:32 10° NNE
Terra 3.7 19:25:00 11° E 19:27:43 17° ENE 19:30:46 10° NNE
Cosmos 2251 Rocket 4.2 19:23:55 10° SW 19:29:13 61° WNW 19:34:32 10° NNE
FALCON 9 DEB 3.5 19:26:54 10° W 19:30:18 63° NNW 19:33:43 10° ENE
ATLAS 3B R/B 3.9 19:24:20 10° NW 19:30:47 40° WSW 19:37:27 10° S
Cosmos 2279 Rocket 4.0 19:27:41 10° S 19:33:53 88° W 19:40:08 10° N
SPOT 5 4.1 19:34:55 16° ESE 19:37:30 26° ENE 19:41:30 10° N
SPOT 1/Viking Rocket 3.9 19:33:40 17° SE 19:37:35 52° ENE 19:42:39 10° N
Cosmos 1980 4.2 19:33:06 10° NW 19:38:41 59° WSW 19:44:11 10° S
SL-16 R/B 2.5 19:33:51 10° NNW 19:39:29 57° NE 19:43:26 20° SE
Cosmos-2242 3.2 19:35:48 10° S 19:39:56 52° E 19:44:07 10° NNE
USA 215 3.4 19:34:16 14° ESE 19:40:02 71° NNE 19:46:33 10° WNW
Cosmos 2151 2.9 19:36:07 10° N 19:40:28 88° E 19:44:09 14° S
Meteor 2-21 Rocket 4.4 19:34:55 10° N 19:41:00 72° E 19:46:19 14° SSE
Cosmos 676 Rocket 4.5 19:37:34 10° S 19:42:18 37° ESE 19:47:03 10° NE
SPOT 3 Rocket 3.6 19:40:39 12° SSE 19:45:29 86° WSW 19:50:42 10° NNW
FALCON 9 DEB 3.2 19:42:35 10° SW 19:45:29 41° SSE 19:46:41 27° E
COSMOS 2455 3.3 19:43:47 10° S 19:49:15 38° ESE 19:54:45 10° NE
Meteor 2-16 Rocket 4.4 19:45:09 10° N 19:51:20 73° ENE 19:56:11 17° SSE
SL-4 R/B 2.4 19:48:14 10° SW 19:52:28 48° SSE 19:57:00 10° ENE
ATLAS 5 CENTAUR R/B 4.4 19:49:56 10° NW 19:53:00 17° N 19:56:22 10° NE
BREEZE M DEB (TANK) 4.4 19:52:05 10° SSW 19:55:50 39° SE 20:06:31 10° ENE
ERS-1 Rocket 3.6 19:53:53 23° ESE 19:56:29 39° ENE 20:01:08 10° N
Cosmos 2266 Rocket 4.0 19:50:48 10° N 19:57:13 89° ENE 20:02:36 15° S
IGS 5A 3.7 19:54:20 16° S 19:57:33 70° WSW 20:01:43 10° NNW
Landsat 7 3.9 19:55:13 17° S 19:58:56 79° WSW 20:03:43 10° NNW
OBJECT-B 3.7 19:57:08 10° SW 19:58:57 14° W 20:00:47 10° NW
Cosmos 1862 4.4 20:01:32 10° N 20:05:00 28° ENE 20:05:50 26° E
Cosmos 1943 4.5 20:00:12 10° NNW 20:05:04 29° NE 20:08:18 17° E
Cosmos 2221 3.7 20:05:05 24° E 20:05:25 24° E 20:08:51 10° NE
ARIANE 5 R/B 2.7 20:04:04 29° SE 20:06:12 64° ENE 20:10:32 10° N
USA 245 2.7 20:05:51 36° SSE 20:07:07 80° ENE 20:10:05 10° NNW
Cosmos 2344 4.1 19:59:55 10° WSW 20:07:16 62° NW 20:15:30 10° NE
Cosmos 407 Rocket 3.8 20:02:53 10° SSW 20:07:59 69° WNW 20:13:11 10° NNE
Meteor 2-3 Rocket 4.1 20:07:31 10° NNW 20:13:14 66° W 20:17:47 16° S
MetOp-B 4.4 20:09:16 18° S 20:13:21 68° WSW 20:18:43 10° NNW
Meteor 1-27 4.2 20:14:09 11° S 20:19:38 85° E 20:25:31 10° NNE
Cosmos 44 Rocket 3.5 20:14:45 10° SSW 20:19:40 52° ESE 20:24:44 10° NE
TSX-5 4.5 20:18:59 36° SE 20:19:51 40° ESE 20:23:37 10° NE
Cosmos 1140 Rocket 4.0 20:16:13 10° SW 20:21:17 61° WNW 20:26:24 10° NNE
CZ-2C R/B 3.8 20:19:23 10° NNE 20:23:49 75° WNW 20:27:43 13° SSW
Cosmos 1954 Rocket 3.9 20:20:08 10° SSW 20:25:18 84° ESE 20:30:31 10° NNE
Cosmos 2237 Rocket 3.8 20:21:27 10° NW 20:26:10 28° WSW 20:30:47 10° SSW
Timation 2 Rocket 4.2 20:21:52 10° SW 20:28:25 76° WNW 20:34:43 10° NNE
Meteor 2-15 4.4 20:29:12 28° SSE 20:32:27 65° E 20:38:27 10° NNE
Cosmos 1500 Rocket 4.2 20:29:01 10° N 20:33:14 39° ENE 20:33:58 37° E
Cosmos 2263 Rocket 3.1 20:34:38 27° E 20:34:38 27° E 20:38:58 10° NE
Cosmos 1766 Rocket 3.8 20:30:12 10° NNW 20:34:30 62° W 20:36:22 32° SSW
Spot 2 Rocket 3.6 20:32:07 29° S 20:34:43 71° WSW 20:39:48 10° NNW
CARTOSAT-1 3.6 20:33:27 40° S 20:35:00 79° WSW 20:39:20 10° NNW
USA 229 DEB 4.1 20:28:07 10° NW 20:35:17 65° NE 20:39:35 28° ESE
Aureole 1 Rocket 4.1 20:35:06 35° ESE 20:35:19 35° ESE 20:39:33 10° NE
USA 229 4.1 20:28:12 10° NW 20:35:23 64° NE 20:39:41 28° ESE
BREEZE M DEB (TANK) 1.9 20:30:05 10° WSW 20:36:09 83° S 20:36:34 64° E
FALCON 9 DEB 3.8 20:39:32 10° WSW 20:41:38 40° WSW 20:41:38 40° WSW
Cosmos 2227 Rocket 2.8 20:37:35 10° SW 20:43:09 57° WNW 20:48:46 10° NNE
Cosmos 2082 3.6 20:37:34 10° SSW 20:43:11 86° ESE 20:48:51 10° NNE
Okean 3 Rocket 4.2 20:39:14 10° NNW 20:43:38 52° W 20:45:39 29° SSW
H-2A R/B 3.7 20:40:36 10° NNE 20:44:43 48° E 20:44:43 48° E
FALCON 9 DEB 3.7 20:44:12 10° WSW 20:46:28 45° W 20:46:28 45° W
Lacrosse 5 rocket 2.3 20:44:04 10° NW 20:48:12 45° NNE 20:49:58 29° ENE
Resurs 01 Rocket 3.9 20:46:34 10° SW 20:49:53 20° W 20:53:12 10° NW
Cosmos 1869 4.0 20:47:58 26° SW 20:49:53 51° WNW 20:53:45 10° N
Cosmos 2297 Rocket 3.4 20:44:37 10° WSW 20:49:58 43° NW 20:55:23 10° NNE
Cosmos 468 Rocket 4.0 20:44:57 10° NNW 20:50:05 70° WSW 20:51:46 42° S
Cosmos 1553 Rocket 4.1 20:48:27 40° SE 20:50:19 54° E 20:56:15 10° NNE
Meteor 1-4 Rocket 3.3 20:50:30 35° SW 20:51:33 48° WNW 20:55:01 10° N
NOSS 3-1 (A) 4.1 20:46:00 10° NW 20:53:17 73° NE 20:57:37 32° ESE
Cosmos 1603 4.0 20:48:30 10° NNW 20:54:11 59° ENE 20:55:59 41° ESE
Cosmos 841 Rocket 3.6 20:49:47 10° NNW 20:54:59 66° ENE 20:56:15 48° ESE
Cosmos 2219 4.5 20:53:59 10° WSW 20:59:15 40° NW 21:04:35 10° NNE
FALCON 9 DEB 4.3 20:56:18 10° W 20:58:11 33° W 20:58:11 33° W
Cosmos 1763 Rocket 3.8 20:57:55 10° NNW 21:02:54 57° WSW 21:04:17 42° SSW
Terra 1.8 21:03:52 55° S 21:04:53 79° WSW 21:09:41 10° NNW
FALCON 9 DEB 4.0 21:04:12 10° WNW 21:07:32 46° N 21:07:41 46° NNE
NOSS 2-1 (E) 4.4 21:10:55 29° NE 21:10:55 29° NE 21:12:51 10° NE
Cosmos 540 Rocket 3.3 21:05:36 10° NNW 21:10:45 86° WSW 21:11:41 61° SSE
Cosmos 1814 Rocket 4.1 21:05:27 10° NNW 21:10:45 63° ENE 21:11:45 52° ESE
Cosmos 921 Rocket 3.0 21:07:46 10° NNW 21:12:11 70° ENE 21:12:21 69° E
SPOT 5 3.5 21:14:08 38° SW 21:15:20 46° W 21:20:01 10° NNW
NOSS 3-1 (C) 4.1 21:09:42 10° NW 21:17:05 68° SW 21:20:23 40° SSE
Meteor 2-2 Rocket 4.3 21:15:41 36° SSW 21:18:08 76° WNW 21:23:51 10° N
Cosmos 1842 Rocket 3.9 21:20:27 51° SW 21:21:17 62° WNW 21:25:46 10° N
USA 215 3.6 21:21:35 41° S 21:23:15 50° SW 21:29:36 10° WNW
SL-16 R/B 3.7 21:18:31 10° NW 21:23:15 28° WSW 21:25:19 22° SW
Cosmos 1174 4.2 21:18:59 10° NNW 21:23:25 56° NE 21:23:25 56° NE
Cosmos 1437 Rocket 4.2 21:29:54 29° NE 21:29:54 29° NE 21:32:04 10° NNE
Cosmos 2315 Rocket 4.5 21:31:12 41° ESE 21:31:57 43° E 21:37:55 10° NNE
SL-4 R/B 2.4 21:27:31 10° W 21:32:06 76° NNW 21:33:32 44° ENE
COSMOS 2455 3.6 21:29:13 10° WSW 21:35:04 51° NW 21:40:57 10° NNE
ERS-1 Rocket 4.2 21:33:52 27° SW 21:35:20 32° W 21:39:51 10° NNW
Meteor 1-25 Rocket 4.3 21:30:07 10° N 21:35:50 64° ENE 21:36:42 56° ESE
ATLAS 5 CENTAUR R/B 4.1 21:35:21 10° NNW 21:39:23 23° NNE 21:43:57 10° ENE
Cosmos 2227 4.1 21:40:44 65° S 21:41:31 77° ESE 21:47:17 10° NNE
Sich 1 3.2 21:37:39 10° N 21:41:28 68° NNE 21:41:28 68° NNE
Cosmos 1805 Rocket 3.6 21:37:54 10° NNW 21:41:58 73° NW 21:41:58 73° NW
Cosmos 2221 3.7 21:41:54 33° WSW 21:42:47 37° WNW 21:46:48 10° N
Meteor 1-20 Rocket 4.1 21:41:28 10° N 21:47:19 81° E 21:48:01 68° SE
Cosmos 1943 3.2 21:43:59 10° NW 21:49:33 63° WSW 21:50:06 60° SW
Cosmos 1745 Rocket 4.2 21:45:41 10° NNW 21:51:56 66° W 21:53:25 50° SSW
SeaSat 1 3.0 21:47:26 10° NE 21:51:19 45° ENE 21:51:19 45° ENE
Cosmos 1570 Rocket 4.1 21:47:45 10° NNW 21:52:58 61° WSW 21:53:15 60° WSW
Cosmos 1709 Rocket 3.8 21:50:58 10° N 21:57:13 85° E 21:58:09 66° SSE
Iridium 4 Rocket 4.0 21:58:16 47° ENE 21:58:16 47° ENE 22:03:17 10° NNE
Meteor 1-26 Rocket 4.5 21:59:48 55° ESE 21:59:58 55° E 22:05:37 10° NNE
Spot 4 3.8 22:00:15 81° NE 22:00:15 81° NE 22:05:02 10° NNW
Cosmos 1633 Rocket 3.5 21:58:34 10° N 22:02:12 56° NNE 22:02:12 56° NNE
Cosmos 1606 4.1 22:06:56 34° NW 22:06:56 34° NW 22:09:54 10° N
S3M 4.3 22:05:25 45° SW 22:07:17 64° WNW 22:13:41 10° N
Cosmos 883 Rocket 4.4 22:06:43 66° S 22:07:42 88° E 22:14:02 10° N
Cosmos 1666 Rocket 3.9 22:09:10 10° NNW 22:12:59 63° NNW 22:12:59 63° NNW
Cosmos 2263 Rocket 2.6 22:16:15 41° WSW 22:17:56 57° NW 22:23:27 10° NNE
Cosmos 1328 Rocket 4.3 22:22:33 47° NE 22:22:33 47° NE 22:25:55 10° NNE
Cosmos 1242 Rocket 4.4 22:23:55 29° NNE 22:23:55 29° NNE 22:25:50 10° NNE
Cosmos 968 Rocket 3.7 22:22:53 59° ENE 22:22:53 59° ENE 22:27:28 10° NNE
NOSS 2-2 (D) 4.4 22:19:28 10° NW 22:24:38 75° NE 22:25:44 60° ESE
USA 229 DEB 4.5 22:19:20 10° NW 22:26:06 41° WSW 22:27:01 40° SW
USA 229 4.4 22:19:25 10° NW 22:26:12 41° WSW 22:27:08 40° SW
Cosmos 1782 4.0 22:28:48 42° NNE 22:28:48 42° NNE 22:31:32 10° N
Lacrosse 5 rocket 2.9 22:23:13 10° WNW 22:25:35 30° WNW 22:25:35 30° WNW
COBE Rocket 4.3 22:29:10 55° ENE 22:29:10 55° ENE 22:33:42 10° N
Cosmos 1844 Rocket 3.3 22:30:56 44° E 22:30:56 44° E 22:35:24 10° NE
Thor Agena Rocket 4.3 22:28:13 10° NNE 22:32:22 40° ENE 22:32:22 40° ENE
Cosmos 1151 Rocket 3.7 22:34:17 52° N 22:34:17 52° N 22:37:39 10° N
ALOS 2 3.1 22:35:37 56° NNW 22:35:37 56° NNW 22:39:09 10° NNW
CZ-4C R/B 4.1 22:34:27 10° NW 22:40:32 36° NNE 22:47:39 10° E
Terra 4.3 22:42:44 11° W 22:43:26 11° W 22:44:42 10° WNW
Cosmos 2082 Rocket 4.4 22:47:04 10° N 22:51:16 21° NE 22:55:27 10° E
Cosmos 1833 Rocket 4.1 22:48:33 10° NNW 22:53:37 32° NE 22:56:05 23° E
Cosmos 2228 Rocket 4.5 22:55:22 31° ENE 22:55:22 31° ENE 22:58:17 10° NNE
Cosmos 1486 Rocket 4.0 22:57:27 80° NNW 22:57:27 80° NNW 23:02:36 10° NNE
Meteor 1-5 Rocket 4.1 22:55:53 10° NNW 23:01:31 79° W 23:01:31 79° W
Cosmos 2154 Rocket 4.0 22:57:01 10° N 23:03:24 73° ENE 23:04:10 65° SE
Meteor 2-6 Rocket 4.0 23:11:23 84° NNE 23:11:23 84° NNE 23:16:37 10° NNE
SL-4 R/B 4.1 23:07:22 10° WNW 23:09:09 23° WNW 23:09:09 23° WNW
Cosmos 2184 Rocket 3.9 23:08:12 10° NNW 23:14:30 70° W 23:14:58 67° SW
Cosmos 2327 Rocket 4.4 23:09:09 10° N 23:15:28 84° E 23:16:08 73° SSE
SJ 16-02 3.5 23:17:22 17° ENE 23:17:22 17° ENE 23:19:21 10° NE
Cosmos 1869 Rocket 4.3 23:12:31 10° N 23:15:55 49° NNE 23:15:55 49° NNE
Cosmos 1515 Rocket 4.3 23:19:41 49° NNW 23:19:41 49° NNW 23:23:15 10° N
Cosmos 2278 Rocket 3.7 23:19:30 23° E 23:19:30 23° E 23:23:31 10° NE
Cosmos 1666 4.5 23:17:58 10° NNW 23:20:00 29° NNW 23:20:00 29° NNW
USA 305 4.2 23:25:51 37° NE 23:25:51 37° NE 23:28:36 10° ENE
ATLAS 5 CENTAUR R/B 2.6 23:19:39 10° NW 23:24:58 61° NE 23:27:06 39° ESE
SeaSat 1 3.9 23:25:16 10° NNE 23:29:37 32° NW 23:31:05 27° WNW
Cosmos 2341 Rocket 4.3 23:23:29 10° N 23:29:48 62° ENE 23:31:02 52° ESE
Cosmos 1295 Rocket 4.3 23:23:48 10° N 23:30:07 88° W 23:30:44 74° S
Cosmos 1241 Rocket 4.5 23:33:02 67° SW 23:34:02 87° NW 23:40:43 10° NE
Cosmos 1844 3.8 23:41:40 63° W 23:42:12 67° WNW 23:47:56 10° NNE
USA 306 3.8 23:43:11 47° NNE 23:43:11 47° NNE 23:46:41 10° ENE
COSMOS 2406 3.4 23:38:16 10° NNW 23:43:57 67° ENE 23:44:55 56° ESE
USA 281 3.1 23:43:08 66° S 23:44:03 76° WSW 23:50:40 10° NNW
Cosmos 1503 Rocket 4.2 23:44:44 58° WNW 23:44:48 58° WNW 23:49:56 10° NNE
Cosmos 962 Rocket 4.3 23:45:42 10° N 23:51:56 86° W 23:52:36 72° S
Gbstr 26 Del rocket 3.8 23:53:47 65° SE 23:53:47 65° SE 23:59:00 10° ENE
